User: anonymous   Login
Location: Unspecified
(0.0000°N, 0.0000°E)
Time: 00:03:44
(UTC+00:00)
Language:

ONEWEB-0495 - Orbit

View from above orbital plane
View from above orbital plane
View from above satellite
View from above satellite

Ground track
Ground track

The orbit is defined by the following mean orbital elements,

1 54115U          26145.39270742 +.00000000 +00000-0 +20275-3 0 00000
2 54115  87.9151 309.5152 0001441  73.7715 286.3576 13.19726425    01
Epoch (UTC): 25 May 2026 09:25:29
Eccentricity: 0.0001441
inclination: 87.9151°
perigee height: 1185 km
apogee height: 1187 km
right ascension of ascending node: 309.5152°
argument of perigee: 73.7715°
revolutions per day: 13.19726425
mean anomaly at epoch: 286.3576°

The dashed part of the orbit path shows where the satellite is in the earth's shadow,  

DLR